When you browse on this site, cookies collect data to enhance your experience and personalize the content and advertising you see.
Visit our Privacy Policy to learn more. By continuing to use the site, you agree to this use of cookies and data.
  • In Romania
  • List of Countries
  • For 7 days
  • Water Temperature
  • Satellite Maps
  • Weather Map
  • Weather Widgets
  • user-avatar
    Login

    Hourly Weather Memphis

    Today, 22 May, Wednesday

    Time Temperature Precipitation Wind Pressure Humidity
    00:00 +26°C° 0.3 mm 4 mps 750 mmHg 75%
    01:00 +26°C° 0.6 mm 4 mps 751 mmHg 77%
    02:00 +26°C° 0.6 mm 5 mps 751 mmHg 78%
    03:00 +24°C° 0.6 mm 6 mps 751 mmHg 80%
    04:00 +24°C° 2.3 mm 6 mps 751 mmHg 83%
    05:00 +24°C° 2.3 mm 6 mps 751 mmHg 85%
    06:00 +24°C° 2.3 mm 6 mps 752 mmHg 88%
    07:00 +24°C° 0.3 mm 6 mps 752 mmHg 88%
    08:00 +26°C° 0.3 mm 6 mps 753 mmHg 87%
    09:00 +26°C° 0.3 mm 6 mps 753 mmHg 86%
    10:00 +28°C° 0.1 mm 6 mps 753 mmHg 81%
    11:00 +29°C° 0.1 mm 6 mps 753 mmHg 76%
    12:00 +32°C° 0.1 mm 6 mps 754 mmHg 71%
    13:00 +32°C° 0.1 mm 6 mps 753 mmHg 68%
    14:00 +33°C° 0.1 mm 6 mps 753 mmHg 65%
    15:00 +34°C° 0.1 mm 6 mps 753 mmHg 62%
    16:00 +33°C° 0 mm 5 mps 753 mmHg 64%
    17:00 +33°C° 0 mm 5 mps 753 mmHg 66%
    18:00 +32°C° 0 mm 4 mps 753 mmHg 68%
    19:00 +30°C° 0 mm 4 mps 753 mmHg 70%
    20:00 +30°C° 0 mm 4 mps 754 mmHg 71%
    21:00 +29°C° 0 mm 4 mps 754 mmHg 72%
    22:00 +28°C° 0 mm 4 mps 754 mmHg 73%
    23:00 +28°C° 0 mm 4 mps 755 mmHg 73%

    Tomorrow, 23 May, Thursday

    Time Temperature Precipitation Wind Pressure Humidity
    00:00 +28°C° 0 mm 4 mps 755 mmHg 74%
    01:00 +27°C° 0 mm 4 mps 755 mmHg 76%
    02:00 +27°C° 0 mm 4 mps 755 mmHg 77%
    03:00 +27°C° 0 mm 4 mps 756 mmHg 79%
    04:00 +26°C° 0 mm 4 mps 756 mmHg 81%
    05:00 +26°C° 0 mm 3 mps 757 mmHg 83%
    06:00 +26°C° 0 mm 3 mps 757 mmHg 85%
    07:00 +27°C° 0 mm 3 mps 758 mmHg 80%
    08:00 +28°C° 0 mm 4 mps 758 mmHg 75%
    09:00 +30°C° 0 mm 4 mps 758 mmHg 70%
    10:00 +32°C° 0 mm 4 mps 758 mmHg 65%
    11:00 +33°C° 0 mm 4 mps 758 mmHg 60%
    12:00 +34°C° 0 mm 4 mps 758 mmHg 54%
    13:00 +34°C° 0 mm 4 mps 758 mmHg 52%
    14:00 +35°C° 0 mm 4 mps 757 mmHg 49%
    15:00 +35°C° 0 mm 4 mps 757 mmHg 46%
    16:00 +34°C° 0 mm 3 mps 757 mmHg 49%
    17:00 +33°C° 0 mm 3 mps 757 mmHg 52%
    18:00 +31°C° 0 mm 2 mps 756 mmHg 54%
    19:00 +30°C° 0 mm 2 mps 757 mmHg 56%
    20:00 +29°C° 0 mm 2 mps 757 mmHg 58%
    21:00 +27°C° 0 mm 1 mps 757 mmHg 60%
    22:00 +27°C° 0 mm 2 mps 757 mmHg 62%
    23:00 +27°C° 0 mm 2 mps 757 mmHg 64%

    Day after tomorrow, 24 May, Friday

    Time Temperature Precipitation Wind Pressure Humidity
    00:00 +26°C° 0 mm 2 mps 757 mmHg 65%
    01:00 +26°C° 0 mm 2 mps 757 mmHg 68%
    02:00 +25°C° 0 mm 2 mps 757 mmHg 71%
    03:00 +25°C° 0 mm 2 mps 756 mmHg 73%
    04:00 +25°C° 0 mm 2 mps 757 mmHg 74%
    05:00 +25°C° 0 mm 2 mps 757 mmHg 76%
    06:00 +25°C° 0 mm 2 mps 757 mmHg 77%
    07:00 +27°C° 0 mm 2 mps 758 mmHg 72%
    08:00 +29°C° 0 mm 2 mps 758 mmHg 67%
    09:00 +31°C° 0 mm 3 mps 759 mmHg 62%
    10:00 +33°C° 0 mm 3 mps 759 mmHg 57%
    11:00 +34°C° 0 mm 3 mps 758 mmHg 52%
    12:00 +35°C° 0 mm 4 mps 758 mmHg 47%
    13:00 +35°C° 0 mm 4 mps 758 mmHg 47%
    14:00 +35°C° 0 mm 4 mps 757 mmHg 46%
    15:00 +35°C° 0 mm 4 mps 756 mmHg 46%
    16:00 +35°C° 0 mm 4 mps 756 mmHg 50%
    17:00 +34°C° 0 mm 3 mps 756 mmHg 53%
    18:00 +33°C° 0 mm 3 mps 756 mmHg 57%
    19:00 +31°C° 0 mm 3 mps 756 mmHg 60%
    20:00 +30°C° 0 mm 3 mps 756 mmHg 63%
    21:00 +28°C° 0 mm 3 mps 756 mmHg 67%
    22:00 +28°C° 0 mm 3 mps 756 mmHg 69%
    23:00 +27°C° 0 mm 3 mps 756 mmHg 71%

    25 May, Saturday

    Time Temperature Precipitation Wind Pressure Humidity
    00:00 +27°C° 0 mm 3 mps 756 mmHg 73%
    01:00 +26°C° 0 mm 3 mps 756 mmHg 75%
    02:00 +26°C° 0 mm 2 mps 756 mmHg 77%
    03:00 +26°C° 0 mm 2 mps 756 mmHg 78%
    04:00 +26°C° 0 mm 2 mps 756 mmHg 79%
    05:00 +26°C° 0 mm 2 mps 757 mmHg 80%
    06:00 +26°C° 0 mm 2 mps 757 mmHg 81%
    07:00 +27°C° 0 mm 3 mps 758 mmHg 75%
    08:00 +29°C° 0 mm 3 mps 758 mmHg 69%
    09:00 +32°C° 0 mm 4 mps 758 mmHg 62%
    10:00 +33°C° 0 mm 4 mps 758 mmHg 56%
    11:00 +34°C° 0 mm 5 mps 758 mmHg 50%
    12:00 +35°C° 0 mm 5 mps 757 mmHg 44%
    13:00 +35°C° 0 mm 5 mps 757 mmHg 43%
    14:00 +35°C° 0 mm 5 mps 757 mmHg 42%
    15:00 +36°C° 0 mm 5 mps 756 mmHg 41%
    16:00 +35°C° 0 mm 4 mps 756 mmHg 44%
    17:00 +34°C° 0 mm 4 mps 756 mmHg 47%
    18:00 +33°C° 0 mm 3 mps 756 mmHg 50%
    19:00 +30°C° 0 mm 3 mps 756 mmHg 52%
    20:00 +29°C° 0 mm 3 mps 756 mmHg 54%
    21:00 +28°C° 0 mm 3 mps 757 mmHg 56%
    22:00 +27°C° 0 mm 3 mps 756 mmHg 58%
    23:00 +26°C° 0 mm 3 mps 756 mmHg 59%

    26 May, Sunday

    Time Temperature Precipitation Wind Pressure Humidity
    00:00 +26°C° 0 mm 3 mps 756 mmHg 60%
    01:00 +25°C° 0 mm 3 mps 756 mmHg 61%
    02:00 +25°C° 0 mm 3 mps 756 mmHg 63%
    03:00 +24°C° 0 mm 2 mps 756 mmHg 64%
    04:00 +24°C° 0 mm 2 mps 757 mmHg 67%
    05:00 +24°C° 0 mm 2 mps 757 mmHg 69%
    06:00 +24°C° 0 mm 2 mps 758 mmHg 71%
    07:00 +26°C° 0 mm 2 mps 758 mmHg 66%
    08:00 +28°C° 0 mm 3 mps 758 mmHg 61%
    09:00 +30°C° 0 mm 3 mps 759 mmHg 57%
    10:00 +33°C° 0 mm 3 mps 758 mmHg 52%
    11:00 +34°C° 0 mm 3 mps 758 mmHg 48%
    12:00 +36°C° 0 mm 4 mps 758 mmHg 44%
    13:00 +36°C° 0 mm 4 mps 757 mmHg 43%
    14:00 +36°C° 0 mm 4 mps 757 mmHg 42%
    15:00 +36°C° 0 mm 5 mps 756 mmHg 42%
    16:00 +35°C° 0 mm 4 mps 756 mmHg 46%
    17:00 +34°C° 0 mm 4 mps 756 mmHg 49%
    18:00 +33°C° 0 mm 4 mps 755 mmHg 53%
    19:00 +31°C° 0 mm 3 mps 756 mmHg 57%
    20:00 +29°C° 0 mm 2 mps 756 mmHg 60%
    21:00 +28°C° 0 mm 2 mps 756 mmHg 63%
    22:00 +28°C° 0 mm 2 mps 756 mmHg 64%
    23:00 +27°C° 0 mm 2 mps 756 mmHg 66%

    27 May, Monday

    Time Temperature Precipitation Wind Pressure Humidity
    00:00 +27°C° 0 mm 2 mps 756 mmHg 67%
    01:00 +26°C° 0 mm 2 mps 755 mmHg 69%
    02:00 +26°C° 0 mm 2 mps 755 mmHg 71%
    03:00 +25°C° 0 mm 2 mps 755 mmHg 72%
    04:00 +25°C° 0 mm 2 mps 755 mmHg 73%
    05:00 +25°C° 0 mm 2 mps 756 mmHg 74%
    06:00 +26°C° 0 mm 2 mps 756 mmHg 75%
    07:00 +27°C° 0 mm 2 mps 756 mmHg 70%
    08:00 +29°C° 0 mm 2 mps 756 mmHg 64%
    09:00 +31°C° 0 mm 2 mps 757 mmHg 59%
    10:00 +32°C° 0 mm 2 mps 756 mmHg 55%
    11:00 +34°C° 0 mm 3 mps 756 mmHg 51%
    12:00 +35°C° 0 mm 3 mps 755 mmHg 48%
    13:00 +35°C° 0 mm 3 mps 754 mmHg 47%
    14:00 +36°C° 0 mm 4 mps 754 mmHg 47%
    15:00 +36°C° 0 mm 4 mps 753 mmHg 47%
    16:00 +35°C° 0 mm 3 mps 752 mmHg 50%
    17:00 +34°C° 0 mm 3 mps 752 mmHg 53%
    18:00 +32°C° 0 mm 2 mps 752 mmHg 57%
    19:00 +31°C° 0 mm 2 mps 752 mmHg 59%
    20:00 +30°C° 0 mm 2 mps 752 mmHg 61%
    21:00 +28°C° 0 mm 2 mps 752 mmHg 63%
    22:00 +28°C° 0 mm 2 mps 752 mmHg 64%
    23:00 +27°C° 0 mm 3 mps 752 mmHg 65%
    Show more